Year,Month,Day,Hour,Minute,Value (Times are PST for temperature in C)
2015,07,04,00,00,19.20
2015,07,04,00,01,19.20
2015,07,04,00,02,19.20
2015,07,04,00,03,19.20
2015,07,04,00,04,19.20
2015,07,04,00,05,19.20
2015,07,04,00,06,19.10
2015,07,04,00,07,19.10
2015,07,04,00,08,19.10
2015,07,04,00,09,19.10
2015,07,04,00,10,19.10
2015,07,04,00,11,19.10
2015,07,04,00,12,19.10
2015,07,04,00,13,19.10
2015,07,04,00,14,19.10
2015,07,04,00,15,19.10
2015,07,04,00,16,19.10
2015,07,04,00,17,19.10
2015,07,04,00,18,19.00
2015,07,04,00,19,18.90
2015,07,04,00,20,18.90
2015,07,04,00,21,18.90
2015,07,04,00,22,18.90
2015,07,04,00,23,18.90
2015,07,04,00,24,18.90
2015,07,04,00,25,18.90
2015,07,04,00,26,18.90
2015,07,04,00,27,18.90
2015,07,04,00,28,18.90
2015,07,04,00,29,18.90
2015,07,04,00,30,18.90
2015,07,04,00,31,18.90
2015,07,04,00,32,18.90
2015,07,04,00,33,18.80
2015,07,04,00,34,18.80
2015,07,04,00,35,18.70
2015,07,04,00,36,18.70
2015,07,04,00,37,18.60
2015,07,04,00,38,18.60
2015,07,04,00,39,18.60
2015,07,04,00,40,18.50
2015,07,04,00,41,18.50
2015,07,04,00,42,18.50
2015,07,04,00,43,18.50
2015,07,04,00,44,18.50
2015,07,04,00,45,18.50
2015,07,04,00,46,18.40
2015,07,04,00,47,18.40
2015,07,04,00,48,18.40
2015,07,04,00,49,18.40
2015,07,04,00,50,18.40
2015,07,04,00,51,18.30
2015,07,04,00,52,18.30
2015,07,04,00,53,18.30
2015,07,04,00,54,18.30
2015,07,04,00,55,18.30
2015,07,04,00,56,18.20
2015,07,04,00,57,18.20
2015,07,04,00,58,18.20
2015,07,04,00,59,18.20
2015,07,04,01,00,18.20
2015,07,04,01,01,18.20
2015,07,04,01,02,18.20
2015,07,04,01,03,18.20
2015,07,04,01,04,18.20
2015,07,04,01,05,18.20
2015,07,04,01,06,18.20
2015,07,04,01,07,18.20
2015,07,04,01,08,18.20
2015,07,04,01,09,18.10
2015,07,04,01,10,18.10
2015,07,04,01,11,18.10
2015,07,04,01,12,18.00
2015,07,04,01,13,17.90
2015,07,04,01,14,17.90
2015,07,04,01,15,17.90
2015,07,04,01,16,17.90
2015,07,04,01,17,17.90
2015,07,04,01,18,17.90
2015,07,04,01,19,17.90
2015,07,04,01,20,17.90
2015,07,04,01,21,17.90
2015,07,04,01,22,17.90
2015,07,04,01,23,17.90
2015,07,04,01,24,17.90
2015,07,04,01,25,17.90
2015,07,04,01,26,17.90
2015,07,04,01,27,17.90
2015,07,04,01,28,17.90
2015,07,04,01,29,17.80
2015,07,04,01,30,17.80
2015,07,04,01,31,17.80
2015,07,04,01,32,17.80
2015,07,04,01,33,17.80
2015,07,04,01,34,17.80
2015,07,04,01,35,17.80
2015,07,04,01,36,17.80
2015,07,04,01,37,17.70
2015,07,04,01,38,17.70
2015,07,04,01,39,17.70
2015,07,04,01,40,17.70
2015,07,04,01,41,17.70
2015,07,04,01,42,17.70
2015,07,04,01,43,17.70
2015,07,04,01,44,17.60
2015,07,04,01,45,17.60
2015,07,04,01,46,17.60
2015,07,04,01,47,17.60
2015,07,04,01,48,17.60
2015,07,04,01,49,17.50
2015,07,04,01,50,17.50
2015,07,04,01,51,17.50
2015,07,04,01,52,17.50
2015,07,04,01,53,17.50
2015,07,04,01,54,17.40
2015,07,04,01,55,17.40
2015,07,04,01,56,17.30
2015,07,04,01,57,17.30
2015,07,04,01,58,17.20
2015,07,04,01,59,17.10
2015,07,04,02,00,17.10
2015,07,04,02,01,17.00
2015,07,04,02,02,16.90
2015,07,04,02,03,16.80
2015,07,04,02,04,16.80
2015,07,04,02,05,16.70
2015,07,04,02,06,16.60
2015,07,04,02,07,16.50
2015,07,04,02,08,16.40
2015,07,04,02,09,16.40
2015,07,04,02,10,16.40
2015,07,04,02,11,16.30
2015,07,04,02,12,16.30
2015,07,04,02,13,16.30
2015,07,04,02,14,16.20
2015,07,04,02,15,16.20
2015,07,04,02,16,16.10
2015,07,04,02,17,16.10
2015,07,04,02,18,16.10
2015,07,04,02,19,16.10
2015,07,04,02,20,16.10
2015,07,04,02,21,16.00
2015,07,04,02,22,15.90
2015,07,04,02,23,15.90
2015,07,04,02,24,15.80
2015,07,04,02,25,15.80
2015,07,04,02,26,15.70
2015,07,04,02,27,15.70
2015,07,04,02,28,15.60
2015,07,04,02,29,15.50
2015,07,04,02,30,15.50
2015,07,04,02,31,15.40
2015,07,04,02,32,15.40
2015,07,04,02,33,15.30
2015,07,04,02,34,15.30
2015,07,04,02,35,15.20
2015,07,04,02,36,15.10
2015,07,04,02,37,15.00
2015,07,04,02,38,15.00
2015,07,04,02,39,14.90
2015,07,04,02,40,14.80
2015,07,04,02,41,14.80
2015,07,04,02,42,14.80
2015,07,04,02,43,14.70
2015,07,04,02,44,14.70
2015,07,04,02,45,14.60
2015,07,04,02,46,14.60
2015,07,04,02,47,14.50
2015,07,04,02,48,14.50
2015,07,04,02,49,14.50
2015,07,04,02,50,14.50
2015,07,04,02,51,14.50
2015,07,04,02,52,14.60
2015,07,04,02,53,14.60
2015,07,04,02,54,14.60
2015,07,04,02,55,14.60
2015,07,04,02,56,14.70
2015,07,04,02,57,14.70
2015,07,04,02,58,14.70
2015,07,04,02,59,14.70
2015,07,04,03,00,14.80
2015,07,04,03,01,14.80
2015,07,04,03,02,14.80
2015,07,04,03,03,14.80
2015,07,04,03,04,14.80
2015,07,04,03,05,14.80
2015,07,04,03,06,14.80
2015,07,04,03,07,14.90
2015,07,04,03,08,14.90
2015,07,04,03,09,14.90
2015,07,04,03,10,14.90
2015,07,04,03,11,14.90
2015,07,04,03,12,15.00
2015,07,04,03,13,15.00
2015,07,04,03,14,15.00
2015,07,04,03,15,15.00
2015,07,04,03,16,15.00
2015,07,04,03,17,15.00
2015,07,04,03,18,15.00
2015,07,04,03,19,15.10
2015,07,04,03,20,15.10
2015,07,04,03,21,15.00
2015,07,04,03,22,15.00
2015,07,04,03,23,15.00
2015,07,04,03,24,15.00
2015,07,04,03,25,15.10
2015,07,04,03,26,15.10
2015,07,04,03,27,15.10
2015,07,04,03,28,15.20
2015,07,04,03,29,15.20
2015,07,04,03,30,15.20
2015,07,04,03,31,15.20
2015,07,04,03,32,15.20
2015,07,04,03,33,15.20
2015,07,04,03,34,15.30
2015,07,04,03,35,15.30
2015,07,04,03,36,15.30
2015,07,04,03,37,15.30
2015,07,04,03,38,15.30
2015,07,04,03,39,15.30
2015,07,04,03,40,15.40
2015,07,04,03,41,15.40
2015,07,04,03,42,15.40
2015,07,04,03,43,15.40
2015,07,04,03,44,15.40
2015,07,04,03,45,15.40
2015,07,04,03,46,15.50
2015,07,04,03,47,15.50
2015,07,04,03,48,15.50
2015,07,04,03,49,15.50
2015,07,04,03,50,15.50
2015,07,04,03,51,15.40
2015,07,04,03,52,15.40
2015,07,04,03,53,15.40
2015,07,04,03,54,15.40
2015,07,04,03,55,15.40
2015,07,04,03,56,15.40
2015,07,04,03,57,15.40
2015,07,04,03,58,15.40
2015,07,04,03,59,15.40
2015,07,04,04,00,15.40
2015,07,04,04,01,15.40
2015,07,04,04,02,15.40
2015,07,04,04,03,15.40
2015,07,04,04,04,15.40
2015,07,04,04,05,15.50
2015,07,04,04,06,15.50
2015,07,04,04,07,15.50
2015,07,04,04,08,15.50
2015,07,04,04,09,15.50
2015,07,04,04,10,15.50
2015,07,04,04,11,15.60
2015,07,04,04,12,15.60
2015,07,04,04,13,15.60
2015,07,04,04,14,15.60
2015,07,04,04,15,15.60
2015,07,04,04,16,15.60
2015,07,04,04,17,15.60
2015,07,04,04,18,15.60
2015,07,04,04,19,15.60
2015,07,04,04,20,15.60
2015,07,04,04,21,15.60
2015,07,04,04,22,15.60
2015,07,04,04,23,15.60
2015,07,04,04,24,15.60
2015,07,04,04,25,15.60
2015,07,04,04,26,15.60
2015,07,04,04,27,15.60
2015,07,04,04,28,15.60
2015,07,04,04,29,15.50
2015,07,04,04,30,15.50
2015,07,04,04,31,15.50
2015,07,04,04,32,15.50
2015,07,04,04,33,15.50
2015,07,04,04,34,15.50
2015,07,04,04,35,15.50
2015,07,04,04,36,15.50
2015,07,04,04,37,15.50
2015,07,04,04,38,15.40
2015,07,04,04,39,15.40
2015,07,04,04,40,15.40
2015,07,04,04,41,15.40
2015,07,04,04,42,15.40
2015,07,04,04,43,15.30
2015,07,04,04,44,15.30
2015,07,04,04,45,15.30
2015,07,04,04,46,15.30
2015,07,04,04,47,15.30
2015,07,04,04,48,15.30
2015,07,04,04,49,15.20
2015,07,04,04,50,15.20
2015,07,04,04,51,15.20
2015,07,04,04,52,15.20
2015,07,04,04,53,15.20
2015,07,04,04,54,15.20
2015,07,04,04,55,15.20
2015,07,04,04,56,15.20
2015,07,04,04,57,15.20
2015,07,04,04,58,15.20
2015,07,04,04,59,15.20
2015,07,04,05,00,15.20
2015,07,04,05,01,15.20
2015,07,04,05,02,15.10
2015,07,04,05,03,15.10
2015,07,04,05,04,15.10
2015,07,04,05,05,15.10
2015,07,04,05,06,15.10
2015,07,04,05,07,15.10
2015,07,04,05,08,15.10
2015,07,04,05,09,15.10
2015,07,04,05,10,15.10
2015,07,04,05,11,15.10
2015,07,04,05,12,15.10
2015,07,04,05,13,15.10
2015,07,04,05,14,15.10
2015,07,04,05,15,15.10
2015,07,04,05,16,15.10
2015,07,04,05,17,15.10
2015,07,04,05,18,15.10
2015,07,04,05,19,15.10
2015,07,04,05,20,15.00
2015,07,04,05,21,15.00
2015,07,04,05,22,15.00
2015,07,04,05,23,15.00
2015,07,04,05,24,15.00
2015,07,04,05,25,15.00
2015,07,04,05,26,15.00
2015,07,04,05,27,15.00
2015,07,04,05,28,15.00
2015,07,04,05,29,14.90
2015,07,04,05,30,14.90
2015,07,04,05,31,14.90
2015,07,04,05,32,14.80
2015,07,04,05,33,14.80
2015,07,04,05,34,14.80
2015,07,04,05,35,14.70
2015,07,04,05,36,14.70
2015,07,04,05,37,14.60
2015,07,04,05,38,14.60
2015,07,04,05,39,14.50
2015,07,04,05,40,14.50
2015,07,04,05,41,14.50
2015,07,04,05,42,14.50
2015,07,04,05,43,14.40
2015,07,04,05,44,14.40
2015,07,04,05,45,14.40
2015,07,04,05,46,14.40
2015,07,04,05,47,14.40
2015,07,04,05,48,14.40
2015,07,04,05,49,14.30
2015,07,04,05,50,14.30
2015,07,04,05,51,14.30
2015,07,04,05,52,14.40
2015,07,04,05,53,14.40
2015,07,04,05,54,14.40
2015,07,04,05,55,14.40
2015,07,04,05,56,14.40
2015,07,04,05,57,14.40
2015,07,04,05,58,14.40
2015,07,04,05,59,14.40
2015,07,04,06,00,14.50
2015,07,04,06,01,14.50
2015,07,04,06,02,14.50
2015,07,04,06,03,14.50
2015,07,04,06,04,14.60
2015,07,04,06,05,14.60
2015,07,04,06,06,14.70
2015,07,04,06,07,14.70
2015,07,04,06,08,14.80
2015,07,04,06,09,14.80
2015,07,04,06,10,14.90
2015,07,04,06,11,15.00
2015,07,04,06,12,15.00
2015,07,04,06,13,15.10
2015,07,04,06,14,15.20
2015,07,04,06,15,15.30
2015,07,04,06,16,15.30
2015,07,04,06,17,15.40
2015,07,04,06,18,15.50
2015,07,04,06,19,15.60
2015,07,04,06,20,15.70
2015,07,04,06,21,15.80
2015,07,04,06,22,15.90
2015,07,04,06,23,16.00
2015,07,04,06,24,16.10
2015,07,04,06,25,16.10
2015,07,04,06,26,16.20
2015,07,04,06,27,16.30
2015,07,04,06,28,16.40
2015,07,04,06,29,16.50
2015,07,04,06,30,16.60
2015,07,04,06,31,16.70
2015,07,04,06,32,16.80
2015,07,04,06,33,16.80
2015,07,04,06,34,16.90
2015,07,04,06,35,17.00
2015,07,04,06,36,17.10
2015,07,04,06,37,17.20
2015,07,04,06,38,17.30
2015,07,04,06,39,17.30
2015,07,04,06,40,17.40
2015,07,04,06,41,17.40
2015,07,04,06,42,17.50
2015,07,04,06,43,17.50
2015,07,04,06,44,17.60
2015,07,04,06,45,17.70
2015,07,04,06,46,17.70
2015,07,04,06,47,17.80
2015,07,04,06,48,17.90
2015,07,04,06,49,17.90
2015,07,04,06,50,18.00
2015,07,04,06,51,18.10
2015,07,04,06,52,18.10
2015,07,04,06,53,18.10
2015,07,04,06,54,18.10
2015,07,04,06,55,18.10
2015,07,04,06,56,18.10
2015,07,04,06,57,18.20
2015,07,04,06,58,18.20
2015,07,04,06,59,18.20
2015,07,04,07,00,18.20
2015,07,04,07,01,18.20
2015,07,04,07,02,18.20
2015,07,04,07,03,18.30
2015,07,04,07,04,18.30
2015,07,04,07,05,18.30
2015,07,04,07,06,18.40
2015,07,04,07,07,18.40
2015,07,04,07,08,18.50
2015,07,04,07,09,18.60
2015,07,04,07,10,18.60
2015,07,04,07,11,18.70
2015,07,04,07,12,18.80
2015,07,04,07,13,18.80
2015,07,04,07,14,18.90
2015,07,04,07,15,18.90
2015,07,04,07,16,19.00
2015,07,04,07,17,19.10
2015,07,04,07,18,19.20
2015,07,04,07,19,19.20
2015,07,04,07,20,19.40
2015,07,04,07,21,19.50
2015,07,04,07,22,19.60
2015,07,04,07,23,19.70
2015,07,04,07,24,19.80
2015,07,04,07,25,19.90
2015,07,04,07,26,19.90
2015,07,04,07,27,20.00
2015,07,04,07,28,20.10
2015,07,04,07,29,20.20
2015,07,04,07,30,20.30
2015,07,04,07,31,20.40
2015,07,04,07,32,20.50
2015,07,04,07,33,20.60
2015,07,04,07,34,20.60
2015,07,04,07,35,20.70
2015,07,04,07,36,20.70
2015,07,04,07,37,20.80
2015,07,04,07,38,20.80
2015,07,04,07,39,20.90
2015,07,04,07,40,20.90
2015,07,04,07,41,21.00
2015,07,04,07,42,21.00
2015,07,04,07,43,21.10
2015,07,04,07,44,21.10
2015,07,04,07,45,21.20
2015,07,04,07,46,21.30
2015,07,04,07,47,21.30
2015,07,04,07,48,21.30
2015,07,04,07,49,21.30
2015,07,04,07,50,21.30
2015,07,04,07,51,21.30
2015,07,04,07,52,21.40
2015,07,04,07,53,21.40
2015,07,04,07,54,21.50
2015,07,04,07,55,21.60
2015,07,04,07,56,21.60
2015,07,04,07,57,21.60
2015,07,04,07,58,21.60
2015,07,04,07,59,21.70
2015,07,04,08,00,21.80
2015,07,04,08,01,21.80
2015,07,04,08,02,21.90
2015,07,04,08,03,21.90
2015,07,04,08,04,21.90
2015,07,04,08,05,22.00
2015,07,04,08,06,22.00
2015,07,04,08,07,22.10
2015,07,04,08,08,22.10
2015,07,04,08,09,22.10
2015,07,04,08,10,21.90
2015,07,04,08,11,21.70
2015,07,04,08,12,21.40
2015,07,04,08,13,21.10
2015,07,04,08,14,20.90
2015,07,04,08,15,20.60
2015,07,04,08,16,20.30
2015,07,04,08,17,20.10
2015,07,04,08,18,19.90
2015,07,04,08,19,19.70
2015,07,04,08,20,19.60
2015,07,04,08,21,19.50
2015,07,04,08,22,19.40
2015,07,04,08,23,19.40
2015,07,04,08,24,19.40
2015,07,04,08,25,19.30
2015,07,04,08,26,19.30
2015,07,04,08,27,19.30
2015,07,04,08,28,19.30
2015,07,04,08,29,19.30
2015,07,04,08,30,19.30
2015,07,04,08,31,19.30
2015,07,04,08,32,19.30
2015,07,04,08,33,19.30
2015,07,04,08,34,19.30
2015,07,04,08,35,19.30
2015,07,04,08,36,19.30
2015,07,04,08,37,19.30
2015,07,04,08,38,19.30
2015,07,04,08,39,19.30
2015,07,04,08,40,19.30
2015,07,04,08,41,19.20
2015,07,04,08,42,19.20
2015,07,04,08,43,19.20
2015,07,04,08,44,19.20
2015,07,04,08,45,19.10
2015,07,04,08,46,19.10
2015,07,04,08,47,19.10
2015,07,04,08,48,19.10
2015,07,04,08,49,19.10
2015,07,04,08,50,19.10
2015,07,04,08,51,19.10
2015,07,04,08,52,19.10
2015,07,04,08,53,19.10
2015,07,04,08,54,19.10
2015,07,04,08,55,19.10
2015,07,04,08,56,19.10
2015,07,04,08,57,19.10
2015,07,04,08,58,19.20
2015,07,04,08,59,19.20
2015,07,04,09,00,19.30
2015,07,04,09,01,19.40
2015,07,04,09,02,19.40
2015,07,04,09,03,19.50
2015,07,04,09,04,19.60
2015,07,04,09,05,19.70
2015,07,04,09,06,19.80
2015,07,04,09,07,19.90
2015,07,04,09,08,20.10
2015,07,04,09,09,20.20
2015,07,04,09,10,20.40
2015,07,04,09,11,20.50
2015,07,04,09,12,20.70
2015,07,04,09,13,20.80
2015,07,04,09,14,21.00
2015,07,04,09,15,21.10
2015,07,04,09,16,21.10
2015,07,04,09,17,21.30
2015,07,04,09,18,21.30
2015,07,04,09,19,21.30
2015,07,04,09,20,21.40
2015,07,04,09,21,21.40
2015,07,04,09,22,21.50
2015,07,04,09,23,21.60
2015,07,04,09,24,21.60
2015,07,04,09,25,21.60
2015,07,04,09,26,21.60
2015,07,04,09,27,21.70
2015,07,04,09,28,21.80
2015,07,04,09,29,21.90
2015,07,04,09,30,22.00
2015,07,04,09,31,22.10
2015,07,04,09,32,22.20
2015,07,04,09,33,22.20
2015,07,04,09,34,22.30
2015,07,04,09,35,22.40
2015,07,04,09,36,22.40
2015,07,04,09,37,22.50
2015,07,04,09,38,22.40
2015,07,04,09,39,22.40
2015,07,04,09,40,22.40
2015,07,04,09,41,22.40
2015,07,04,09,42,22.40
2015,07,04,09,43,22.40
2015,07,04,09,44,22.40
2015,07,04,09,45,22.40
2015,07,04,09,46,22.40
2015,07,04,09,47,22.40
2015,07,04,09,48,22.50
2015,07,04,09,49,22.50
2015,07,04,09,50,22.50
2015,07,04,09,51,22.50
2015,07,04,09,52,22.50
2015,07,04,09,53,22.60
2015,07,04,09,54,22.60
2015,07,04,09,55,22.40
2015,07,04,09,56,22.30
2015,07,04,09,57,22.30
2015,07,04,09,58,22.30
2015,07,04,09,59,22.40
2015,07,04,10,00,22.50
2015,07,04,10,01,22.50
2015,07,04,10,02,22.50
2015,07,04,10,03,22.60
2015,07,04,10,04,22.60
2015,07,04,10,05,22.40
2015,07,04,10,06,22.20
2015,07,04,10,07,22.00
2015,07,04,10,08,21.80
2015,07,04,10,09,21.70
2015,07,04,10,10,21.70
2015,07,04,10,11,21.70
2015,07,04,10,12,21.60
2015,07,04,10,13,21.60
2015,07,04,10,14,21.50
2015,07,04,10,15,21.30
2015,07,04,10,16,21.10
2015,07,04,10,17,21.00
2015,07,04,10,18,21.00
2015,07,04,10,19,21.00
2015,07,04,10,20,21.00
2015,07,04,10,21,21.10
2015,07,04,10,22,21.10
2015,07,04,10,23,21.20
2015,07,04,10,24,21.30
2015,07,04,10,25,21.40
2015,07,04,10,26,21.50
2015,07,04,10,27,21.60
2015,07,04,10,28,21.80
2015,07,04,10,29,22.00
2015,07,04,10,30,22.10
2015,07,04,10,31,22.10
2015,07,04,10,32,22.10
2015,07,04,10,33,22.00
2015,07,04,10,34,21.90
2015,07,04,10,35,21.80
2015,07,04,10,36,21.60
2015,07,04,10,37,21.50
2015,07,04,10,38,21.40
2015,07,04,10,39,21.40
2015,07,04,10,40,21.40
2015,07,04,10,41,21.30
2015,07,04,10,42,21.30
2015,07,04,10,43,21.30
2015,07,04,10,44,21.30
2015,07,04,10,45,21.30
2015,07,04,10,46,21.10
2015,07,04,10,47,21.00
2015,07,04,10,48,20.90
2015,07,04,10,49,20.90
2015,07,04,10,50,20.90
2015,07,04,10,51,21.00
2015,07,04,10,52,21.10
2015,07,04,10,53,21.20
2015,07,04,10,54,21.30
2015,07,04,10,55,21.30
2015,07,04,10,56,21.30
2015,07,04,10,57,21.40
2015,07,04,10,58,21.40
2015,07,04,10,59,21.40
2015,07,04,11,00,21.40
2015,07,04,11,01,21.40
2015,07,04,11,02,21.40
2015,07,04,11,03,21.60
2015,07,04,11,04,21.60
2015,07,04,11,05,21.60
2015,07,04,11,06,21.70
2015,07,04,11,07,21.70
2015,07,04,11,08,21.70
2015,07,04,11,09,21.80
2015,07,04,11,10,21.90
2015,07,04,11,11,21.90
2015,07,04,11,12,21.90
2015,07,04,11,13,22.00
2015,07,04,11,14,22.10
2015,07,04,11,15,22.10
2015,07,04,11,16,22.10
2015,07,04,11,17,22.10
2015,07,04,11,18,22.00
2015,07,04,11,19,21.90
2015,07,04,11,20,21.80
2015,07,04,11,21,21.70
2015,07,04,11,22,21.70
2015,07,04,11,23,21.70
2015,07,04,11,24,21.80
2015,07,04,11,25,21.70
2015,07,04,11,26,21.70
2015,07,04,11,27,21.70
2015,07,04,11,28,21.70
2015,07,04,11,29,21.60
2015,07,04,11,30,21.70
2015,07,04,11,31,21.90
2015,07,04,11,32,22.00
2015,07,04,11,33,22.20
2015,07,04,11,34,22.30
2015,07,04,11,35,22.40
2015,07,04,11,36,22.50
2015,07,04,11,37,22.60
2015,07,04,11,38,22.70
2015,07,04,11,39,22.70
2015,07,04,11,40,22.70
2015,07,04,11,41,22.70
2015,07,04,11,42,22.70
2015,07,04,11,43,22.80
2015,07,04,11,44,22.80
2015,07,04,11,45,22.80
2015,07,04,11,46,22.90
2015,07,04,11,47,22.90
2015,07,04,11,48,22.90
2015,07,04,11,49,22.90
2015,07,04,11,50,22.90
2015,07,04,11,51,22.90
2015,07,04,11,52,23.00
2015,07,04,11,53,23.10
2015,07,04,11,54,23.20
2015,07,04,11,55,23.30
2015,07,04,11,56,23.30
2015,07,04,11,57,23.30
2015,07,04,11,58,23.30
2015,07,04,11,59,23.30
2015,07,04,12,00,23.30
2015,07,04,12,01,23.40
2015,07,04,12,02,23.50
2015,07,04,12,03,23.60
2015,07,04,12,04,23.70
2015,07,04,12,05,23.70
2015,07,04,12,06,23.80
2015,07,04,12,07,23.90
2015,07,04,12,08,23.90
2015,07,04,12,09,24.10
2015,07,04,12,10,24.10
2015,07,04,12,11,24.10
2015,07,04,12,12,24.10
2015,07,04,12,13,24.10
2015,07,04,12,14,24.10
2015,07,04,12,15,24.10
2015,07,04,12,16,24.10
2015,07,04,12,17,23.90
2015,07,04,12,18,23.80
2015,07,04,12,19,23.70
2015,07,04,12,20,23.70
2015,07,04,12,21,23.70
2015,07,04,12,22,23.70
2015,07,04,12,23,23.80
2015,07,04,12,24,23.80
2015,07,04,12,25,23.80
2015,07,04,12,26,23.80
2015,07,04,12,27,23.70
2015,07,04,12,28,23.80
2015,07,04,12,29,23.80
2015,07,04,12,30,23.80
2015,07,04,12,31,23.70
2015,07,04,12,32,23.80
2015,07,04,12,33,23.90
2015,07,04,12,34,24.00
2015,07,04,12,35,24.20
2015,07,04,12,36,24.40
2015,07,04,12,37,24.50
2015,07,04,12,38,24.60
2015,07,04,12,39,24.60
2015,07,04,12,40,24.70
2015,07,04,12,41,24.70
2015,07,04,12,42,24.70
2015,07,04,12,43,24.80
2015,07,04,12,44,24.80
2015,07,04,12,45,24.80
2015,07,04,12,46,24.90
2015,07,04,12,47,24.90
2015,07,04,12,48,25.00
2015,07,04,12,49,25.10
2015,07,04,12,50,25.10
2015,07,04,12,51,25.00
2015,07,04,12,52,25.00
2015,07,04,12,53,25.00
2015,07,04,12,54,24.90
2015,07,04,12,55,25.00
2015,07,04,12,56,25.00
2015,07,04,12,57,25.10
2015,07,04,12,58,25.10
2015,07,04,12,59,25.10
2015,07,04,13,00,25.20
2015,07,04,13,01,25.20
2015,07,04,13,02,25.20
2015,07,04,13,03,25.20
2015,07,04,13,04,25.20
2015,07,04,13,05,24.90
2015,07,04,13,06,24.70
2015,07,04,13,07,24.50
2015,07,04,13,08,24.30
2015,07,04,13,09,24.20
2015,07,04,13,10,24.20
2015,07,04,13,11,24.20
2015,07,04,13,12,24.10
2015,07,04,13,13,24.20
2015,07,04,13,14,24.30
2015,07,04,13,15,24.40
2015,07,04,13,16,24.60
2015,07,04,13,17,24.80
2015,07,04,13,18,25.00
2015,07,04,13,19,25.10
2015,07,04,13,20,25.10
2015,07,04,13,21,25.10
2015,07,04,13,22,25.00
2015,07,04,13,23,24.80
2015,07,04,13,24,24.60
2015,07,04,13,25,24.60
2015,07,04,13,26,24.50
2015,07,04,13,27,24.60
2015,07,04,13,28,24.50
2015,07,04,13,29,24.50
2015,07,04,13,30,24.60
2015,07,04,13,31,24.70
2015,07,04,13,32,24.80
2015,07,04,13,33,24.90
2015,07,04,13,34,25.00
2015,07,04,13,35,25.10
2015,07,04,13,36,25.10
2015,07,04,13,37,25.10
2015,07,04,13,38,25.10
2015,07,04,13,39,25.10
2015,07,04,13,40,25.10
2015,07,04,13,41,25.00
2015,07,04,13,42,25.10
2015,07,04,13,43,25.10
2015,07,04,13,44,25.00
2015,07,04,13,45,24.80
2015,07,04,13,46,24.60
2015,07,04,13,47,24.50
2015,07,04,13,48,24.50
2015,07,04,13,49,24.40
2015,07,04,13,50,24.40
2015,07,04,13,51,24.40
2015,07,04,13,52,24.40
2015,07,04,13,53,24.30
2015,07,04,13,54,24.10
2015,07,04,13,55,23.80
2015,07,04,13,56,23.80
2015,07,04,13,57,23.80
2015,07,04,13,58,23.80
2015,07,04,13,59,23.80
2015,07,04,14,00,23.70
2015,07,04,14,01,23.70
2015,07,04,14,02,23.70
2015,07,04,14,03,23.60
2015,07,04,14,04,23.60
2015,07,04,14,05,23.60
2015,07,04,14,06,23.70
2015,07,04,14,07,23.80
2015,07,04,14,08,23.90
2015,07,04,14,09,23.90
2015,07,04,14,10,24.00
2015,07,04,14,11,24.10
2015,07,04,14,12,24.10
2015,07,04,14,13,24.20
2015,07,04,14,14,24.20
2015,07,04,14,15,24.30
2015,07,04,14,16,24.30
2015,07,04,14,17,24.40
2015,07,04,14,18,24.40
2015,07,04,14,19,24.10
2015,07,04,14,20,24.00
2015,07,04,14,21,23.90
2015,07,04,14,22,24.00
2015,07,04,14,23,24.10
2015,07,04,14,24,24.10
2015,07,04,14,25,24.10
2015,07,04,14,26,24.20
2015,07,04,14,27,24.30
2015,07,04,14,28,24.40
2015,07,04,14,29,24.40
2015,07,04,14,30,24.40
2015,07,04,14,31,24.50
2015,07,04,14,32,24.60
2015,07,04,14,33,24.70
2015,07,04,14,34,24.80
2015,07,04,14,35,24.80
2015,07,04,14,36,24.80
2015,07,04,14,37,24.90
2015,07,04,14,38,24.90
2015,07,04,14,39,25.00
2015,07,04,14,40,25.00
2015,07,04,14,41,25.00
2015,07,04,14,42,24.90
2015,07,04,14,43,24.80
2015,07,04,14,44,24.60
2015,07,04,14,45,24.50
2015,07,04,14,46,24.30
2015,07,04,14,47,24.20
2015,07,04,14,48,24.10
2015,07,04,14,49,24.10
2015,07,04,14,50,24.00
2015,07,04,14,51,23.90
2015,07,04,14,52,23.80
2015,07,04,14,53,23.80
2015,07,04,14,54,23.80
2015,07,04,14,55,23.80
2015,07,04,14,56,23.70
2015,07,04,14,57,23.70
2015,07,04,14,58,23.70
2015,07,04,14,59,23.70
2015,07,04,15,00,23.80
2015,07,04,15,01,23.90
2015,07,04,15,02,23.90
2015,07,04,15,03,24.10
2015,07,04,15,04,24.10
2015,07,04,15,05,24.30
2015,07,04,15,06,24.40
2015,07,04,15,07,24.40
2015,07,04,15,08,24.30
2015,07,04,15,09,24.30
2015,07,04,15,10,24.20
2015,07,04,15,11,24.10
2015,07,04,15,12,23.90
2015,07,04,15,13,23.70
2015,07,04,15,14,23.60
2015,07,04,15,15,23.60
2015,07,04,15,16,23.60
2015,07,04,15,17,23.60
2015,07,04,15,18,23.80
2015,07,04,15,19,24.00
2015,07,04,15,20,24.20
2015,07,04,15,21,24.20
2015,07,04,15,22,24.20
2015,07,04,15,23,24.20
2015,07,04,15,24,24.20
2015,07,04,15,25,24.20
2015,07,04,15,26,24.20
2015,07,04,15,27,24.10
2015,07,04,15,28,24.10
2015,07,04,15,29,24.10
2015,07,04,15,30,24.20
2015,07,04,15,31,24.20
2015,07,04,15,32,24.20
2015,07,04,15,33,24.30
2015,07,04,15,34,24.40
2015,07,04,15,35,24.50
2015,07,04,15,36,24.60
2015,07,04,15,37,24.60
2015,07,04,15,38,24.60
2015,07,04,15,39,24.50
2015,07,04,15,40,24.40
2015,07,04,15,41,24.40
2015,07,04,15,42,24.30
2015,07,04,15,43,24.20
2015,07,04,15,44,24.20
2015,07,04,15,45,24.20
2015,07,04,15,46,24.10
2015,07,04,15,47,24.00
2015,07,04,15,48,23.90
2015,07,04,15,49,23.80
2015,07,04,15,50,23.70
2015,07,04,15,51,23.70
2015,07,04,15,52,23.70
2015,07,04,15,53,23.70
2015,07,04,15,54,23.70
2015,07,04,15,55,23.70
2015,07,04,15,56,23.70
2015,07,04,15,57,23.70
2015,07,04,15,58,23.70
2015,07,04,15,59,23.70
2015,07,04,16,00,23.70
2015,07,04,16,01,23.70
2015,07,04,16,02,23.70
2015,07,04,16,03,23.70
2015,07,04,16,04,23.70
2015,07,04,16,05,23.80
2015,07,04,16,06,23.90
2015,07,04,16,07,23.90
2015,07,04,16,08,23.90
2015,07,04,16,09,23.90
2015,07,04,16,10,24.00
2015,07,04,16,11,24.10
2015,07,04,16,12,24.10
2015,07,04,16,13,24.20
2015,07,04,16,14,24.30
2015,07,04,16,15,24.40
2015,07,04,16,16,24.50
2015,07,04,16,17,24.60
2015,07,04,16,18,24.70
2015,07,04,16,19,24.70
2015,07,04,16,20,24.70
2015,07,04,16,21,24.80
2015,07,04,16,22,24.80
2015,07,04,16,23,24.90
2015,07,04,16,24,24.90
2015,07,04,16,25,25.00
2015,07,04,16,26,25.00
2015,07,04,16,27,25.00
2015,07,04,16,28,24.90
2015,07,04,16,29,24.90
2015,07,04,16,30,24.90
2015,07,04,16,31,25.00
2015,07,04,16,32,25.00
2015,07,04,16,33,25.10
2015,07,04,16,34,25.20
2015,07,04,16,35,25.20
2015,07,04,16,36,25.10
2015,07,04,16,37,24.90
2015,07,04,16,38,24.90
2015,07,04,16,39,24.90
2015,07,04,16,40,24.90
2015,07,04,16,41,24.90
2015,07,04,16,42,24.90
2015,07,04,16,43,24.90
2015,07,04,16,44,24.90
2015,07,04,16,45,24.90
2015,07,04,16,46,25.00
2015,07,04,16,47,25.00
2015,07,04,16,48,25.00
2015,07,04,16,49,25.10
2015,07,04,16,50,25.20
2015,07,04,16,51,25.10
2015,07,04,16,52,25.00
2015,07,04,16,53,25.00
2015,07,04,16,54,25.10
2015,07,04,16,55,25.20
2015,07,04,16,56,25.30
2015,07,04,16,57,25.30
2015,07,04,16,58,25.30
2015,07,04,16,59,25.30
2015,07,04,17,00,25.30
2015,07,04,17,01,25.30
2015,07,04,17,02,25.40
2015,07,04,17,03,25.40
2015,07,04,17,04,25.40
2015,07,04,17,05,25.50
2015,07,04,17,06,25.50
2015,07,04,17,07,25.40
2015,07,04,17,08,25.40
2015,07,04,17,09,25.40
2015,07,04,17,10,25.40
2015,07,04,17,11,25.40
2015,07,04,17,12,25.50
2015,07,04,17,13,25.50
2015,07,04,17,14,25.50
2015,07,04,17,15,25.40
2015,07,04,17,16,25.40
2015,07,04,17,17,25.40
2015,07,04,17,18,25.40
2015,07,04,17,19,25.40